This is the latest recevied weather packets stored in our database for station/object HK2LS-SM. If no packets are shown the sender has not sent any weather packets the latest 10 day(s).
| Time | Temp. | Humidity | Pressure | Rain* | Wind** | Luminosity | Snow |
|---|---|---|---|---|---|---|---|
| 1777998686 | 31.11° C | 77% | 1007.1 hPa | 0 mm | - | - | - |
| 1777998352 | 30.56° C | 78% | 1007.1 hPa | 0 mm | - | - | - |
| 1777997449 | 30.56° C | 77% | 1007.1 hPa | 0 mm | - | - | - |
| 1777996545 | 31.11° C | 75% | 1007.1 hPa | 0 mm | - | - | - |
| 1777995880 | 30.56° C | 77% | 1007.1 hPa | 0 mm | - | - | - |
| 1777995278 | 30.56° C | 78% | 1007.1 hPa | 0 mm | - | - | - |
| 1777992837 | 30.56° C | 80% | 1007.1 hPa | 0 mm | - | - | - |
| 1777992172 | 30.56° C | 79% | 1007.1 hPa | 0 mm | - | - | - |
| 1777991507 | 30° C | 79% | 1007.1 hPa | 0 mm | - | - | - |
| 1777990602 | 30° C | 80% | 1007.1 hPa | 0 mm | - | - | - |
| 1777988733 | 32.78° C | 73% | 1007.1 hPa | 0 mm | - | - | - |
| 1777987497 | 32.78° C | 72% | 1007.1 hPa | 0 mm | - | - | - |
| 1777985992 | 32.78° C | 70% | 1007.1 hPa | 0 mm | - | - | - |
| 1777984786 | 31.11° C | 69% | 1007.1 hPa | 0 mm | - | - | - |
| 1777983250 | 29.44° C | 73% | 1007.1 hPa | 0 mm | - | - | - |
| 1777980809 | 28.33° C | 77% | 1007.1 hPa | 0 mm | - | - | - |
| 1777980507 | 27.78° C | 77% | 1007.1 hPa | 0 mm | - | - | - |
| 1777980206 | 27.78° C | 77% | 1007.1 hPa | 0 mm | - | - | - |
| 1777974647 | 27.78° C | 78% | 1007.1 hPa | 0 mm | - | - | - |
| 1777972445 | 28.33° C | 78% | 1007.1 hPa | 0 mm | - | - | - |
| 1777971844 | 28.33° C | 77% | 1007.1 hPa | 0 mm | - | - | - |
| 1777969974 | 28.33° C | 77% | 1007.1 hPa | 0 mm | - | - | - |
| 1777969673 | 28.33° C | 77% | 1007.1 hPa | 0 mm | - | - | - |
| 1777969070 | 28.33° C | 77% | 1007.1 hPa | 0 mm | - | - | - |
| 1777966933 | 28.89° C | 75% | 1007.1 hPa | 0 mm | - | - | - |
* Rain latest hour (hover to see other rain measurements)
** Current wind speed in m/s (hover to see current wind gust speed)